SCP
-0 -0 -0 -0 -0 -0 -0 -0 -0 -0 -0 -0 -0 -0 0 0 0 0 0 -0 -0 0 0 0 0 0 0 0 0 0 0 0 0 0 0 0 0 0 0 0 0 0 0 0 0 0 0
0 0 0 -0 -0 -0 -0 -0 -0 -0 -0 -0 -0 -0 -0 -0 -0 -0 0 -0 -0 -0 -0 -0 -0 -0 -0 0 0 0 0 0 0 0 0 0 0 0 0 0 0 0 0 0 0 0 0
0 0 0 0 0 0 0 -0 -0 -0 -0 -0 -0 -0 -0 -0 -0 0 0 0 -0 -0 -0 -0 -0 -0 0 -0 0 0 0 0 0 0 0 0 0 0 0 0 0 0 0 0 0 0 0
-0 0 0 0 0 -0 -0 -0 0 0 0 0 -0 -0 0 0 0 0 0 0 0 -0 -0 -0 0 -0 -0 0 0 0 0 0 0 0 0 0 0 0 0 0 0 0 0 0 0 0 0
-0 -0 -0 -0 0 0 0 0 0 0 0 0 0 0 0 0 -0 -0 -0 -0 -0 0 0 -0 -0 -0 -0 -0 0 0 0 0 0 0 0 0 0 0 0 0 0 0 0 0 0 0 0
0 0 0 -0 -0 0 0 0 0 0 0 0 0 0 0 0 -0 -0 -0 -0 -0 0 0 -0 -0 -0 -0 -0 0 0 -0 0 0 0 0 0 0 0 0 0 0 0 0 0 0 0 0
0 0 0 0 0 -0 -0 0 0 0 0 0 0 0 0 0 0 0 0 0 0 0 0 -0 -0 -0 -0 0 0 0 -0 -0 0 0 0 0 0 0 0 0 0 0 0 0 0 0 0
0 0 0 0 0 0 -0 0 0 0 0 0 0 0 0 0 0 -0 0 0 0 0 -0 -0 0 0 0 0 0 0 0 -0 0 0 0 0 0 0 0 0 0 0 0 0 0 0 0
0 0 0 0 0 0 0 0 0 0 0 0 0 0 0 0 0 0 0 0 0 0 0 0 0 0 -0 0 0 0 0 0 0 0 0 0 0 0 0 0 0 0 0 0 0 0 0
0 0 0 0 0 0 0 0 0 0 0 0 0 0 0 0 0 0 0 0 0 0 0 0 0 0 0 0 0 0 0 0 0 0 0 0 0 0 0 0 0 0 0 0 0 0 0
0 0 0 0 0 0 0 0 0 0 0 0 0 -0 -0 0 0 0 0 0 0 0 0 0 0 0 0 0 0 0 0 0 0 0 0 0 0 0 0 0 0 0 0 0 0 0 0
0 0 0 0 0 0 0 0 0 0 0 0 0 0 -0 0 0 0 0 0 0 0 0 0 0 0 0 0 0 0 0 0 0 0 0 0 0 0 0 0 0 0 0 0 0 0 0
0 0 0 0 0 0 0 0 0 0 0 0 0 0 0 0 0 0 0 0 0 0 0 0 0 0 0 0 0 0 0 0 0 0 0 0 0 0 0 0 0 0 0 0 0 0 0
0 0 0 0 0 0 0 0 0 0 0 0 0 0 0 0 0 0 0 0 0 0 0 0 0 0 0 0 0 0 0 0 0 0 0 0 0 0 0 0 0 0 0 0 0 0 0
0 0 0 0 0 0 0 0 0 0 0 0 0 0 0 0 0 0 0 0 0 0 0 0 0 0 0 0 0 0 0 0 0 0 0 -0 0 0 0 0 0 0 0 0 0 0 0
-0 0 0 0 0 0 0 0 0 0 0 0 0 0 0 0 0 0 0 0 0 0 0 0 0 0 0 0 0 0 0 0 0 0 0 -0 0 0 0 0 0 0 0 0 0 0 0
0 -0 -0 0 0 0 0 0 0 0 0 0 0 0 0 0 0 0 0 0 0 0 0 0 0 0 0 0 0 0 0 0 0 0 0 0 0 0 0 -0 0 0 0 0 0 0 0
0 0 -0 0 0 0 0 0 0 0 0 0 0 0 0 0 0 0 0 0 0 0 0 0 0 0 0 0 0 0 0 0 0 -0 0 0 0 0 0 0 0 0 0 0 0 0 0
0 0 0 0 -0 0 0 0 0 0 0 0 0 0 0 0 0 0 0 0 0 0 0 0 0 0 0 0 0 0 0 0 0 0 0 0 0 0 0 0 0 0 0 0 0 0 -0
0 0 0 0 0 0 0 0 0 0 0 0 0 0 0 0 0 0 0 0 0 0 0 0 0 0 0 0 0 0 0 0 0 0 0 0 0 0 0 0 0 0 0 0 0 0 -0
0 0 0 0 0 0 0 0 0 0 0 0 0 0 0 0 0 0 0 0 0 0 0 0 0 0 0 0 0 0 0 0 0 0 0 0 0 0 0 0 0 0 0 0 0 0 -0
0 0 0 0 0 0 0 0 0 0 0 0 0 0 0 0 0 0 0 0 0 0 0 0 0 0 0 0 0 0 0 0 0 0 0 0 -0 -0 -0 0 0 0 0 0 0 0 -0
0 0 0 0 0 0 0 0 0 0 0 0 0 0 0 0 0 0 0 0 0 0 0 0 0 0 0 0 0 -0 -0 -0 -0 0 0 0 0 0 -0 0 0 -0 -0 0 0 -0 -0
0 0 0 0 0 0 0 0 0 0 0 0 0 0 0 0 0 0 0 0 0 0 0 0 0 0 0 0 0 -0 0 0 -0 -0 -0 -0 0 -0 -0 -0 -0 0 0 0 0 0 0
0 0 0 0 0 0 0 0 0 0 0 0 0 0 0 0 0 0 0 0 0 0 0 0 0 0 0 0 0 0 0 0 0 -0 -0 -0 -0 0 0 0 0 -0 0 0 0 0 0
0 0 0 0 0 0 0 0 0 0 0 0 0 0 0 0 0 0 0 0 0 0 0 0 0 0 -0 0 0 0 0 0 0 0 0 0 -0 0 0 0 0 0 -0 0 0 0 0
0 0 0 0 0 0 0 0 -0 0 0 0 0 0 0 0 0 0 0 0 0 0 0 0 0 0 -0 -0 -0 0 0 0 0 0 0 0 0 -0 0 0 -0 -0 -0 0 0 0 0
0 0 0 0 0 0 0 0 -0 0 0 0 0 0 0 0 0 0 0 0 0 0 0 0 0 0 0 0 -0 0 0 0 0 0 0 0 0 0 0 0 0 -0 -0 0 0 0 0
0 0 0 0 0 0 0 0 -0 0 0 0 0 0 0 0 0 0 0 0 -0 -0 -0 0 0 0 -0 -0 0 0 0 0 0 0 0 0 0 0 0 0 0 0 -0 0 -0 0 0
Wind_Speed_500mb
35 34 34 33 33 33 33 34 34 35 35 34 35 36 37 39 37 36 34 32 35 39 41 43 40 35 36 28 30 21 23 39 38 36 22 16 43 20 14 13 18 29 20 31 56 42 38
36 35 35 36 37 38 38 38 38 39 39 38 37 37 38 39 37 33 27 30 35 37 31 33 31 32 27 10 26 40 41 34 37 39 29 18 17 42 17 14 33 6 24 33 33 34 21
37 37 38 40 41 41 41 41 40 40 39 38 37 38 39 40 35 26 21 25 32 42 31 26 32 31 30 24 43 18 20 33 48 37 38 27 27 21 8 6 23 23 12 8 15 19 22
34 33 34 36 38 40 42 42 43 45 45 46 46 45 44 44 39 32 29 32 34 31 24 38 37 19 21 35 37 35 38 45 46 47 26 31 21 27 24 20 9 8 9 26 27 15 13
37 36 37 39 41 42 43 45 46 48 49 49 48 46 44 44 38 35 35 39 39 34 30 43 21 16 16 35 39 41 38 39 35 40 36 18 20 21 11 8 7 9 31 19 12 17 22
35 35 37 40 41 42 44 47 49 50 51 50 48 45 43 41 37 37 38 42 33 17 23 24 12 11 18 39 51 42 33 26 21 37 12 16 17 7 6 13 31 21 13 3 10 10 28
36 36 38 40 41 44 47 50 53 52 51 50 47 43 41 35 30 34 39 45 33 7 32 16 36 32 45 48 42 45 39 24 10 5 6 9 7 26 22 21 18 11 7 3 2 4 5
39 40 40 40 42 45 48 51 54 54 51 50 46 42 38 28 21 23 26 17 16 20 24 28 28 31 31 36 24 40 31 7 3 9 2 8 18 15 8 12 19 19 5 7 10 18 9
42 43 43 44 45 46 48 49 51 53 52 48 44 43 33 22 16 18 11 17 22 23 8 27 20 21 20 42 21 33 20 6 7 7 9 13 14 6 10 10 10 8 10 5 13 18 20
45 46 46 47 49 51 52 52 52 53 52 50 45 43 30 15 10 26 4 25 27 10 6 11 12 9 35 39 9 51 25 10 6 12 9 11 14 14 14 10 22 21 9 3 6 5 14
45 47 49 51 52 54 57 57 53 53 53 49 48 40 28 14 18 24 26 35 14 5 7 24 9 18 58 8 28 11 13 6 14 11 3 19 13 6 8 12 14 12 21 17 8 9 7
46 47 49 51 54 56 58 60 56 56 56 54 50 40 26 8 14 27 34 34 8 10 8 14 15 23 31 25 27 16 28 18 9 8 14 24 31 9 14 16 10 8 10 7 5 5 12
48 49 49 50 54 57 60 62 62 60 60 58 50 31 10 6 11 28 37 6 8 8 9 11 17 18 30 10 22 13 23 13 8 8 7 18 21 25 12 8 4 7 10 3 2 5 18
47 49 50 51 54 57 61 64 66 65 63 58 40 18 11 5 10 24 32 9 12 5 10 13 13 29 9 15 13 14 12 11 5 12 10 10 7 14 15 20 14 12 16 8 11 10 8
48 49 50 51 54 59 62 63 65 65 64 59 30 10 10 5 10 22 16 9 10 5 7 12 23 7 7 11 8 12 9 5 4 9 11 9 1 11 12 4 20 9 10 17 5 6 2
49 52 52 52 54 58 63 63 65 65 61 60 31 8 12 7 13 24 8 5 6 7 15 14 8 5 9 15 12 11 8 6 8 14 4 7 10 10 8 7 22 10 8 8 2 9 9
49 52 54 55 56 57 62 62 62 66 61 56 24 4 9 9 18 7 5 8 10 15 19 7 7 11 12 10 9 7 12 11 2 11 9 5 1 8 4 7 10 2 2 3 6 9 7
47 51 54 57 60 59 59 60 57 63 67 55 17 4 17 8 7 4 1 8 17 8 5 9 8 9 10 7 10 8 10 8 13 5 9 4 2 7 12 12 8 4 6 4 8 11 14
47 49 53 59 64 63 56 57 55 54 60 55 24 9 9 17 4 5 11 10 10 7 9 5 8 5 5 6 11 9 12 11 31 3 5 3 2 7 10 6 9 5 5 8 3 2 10
47 45 47 55 60 65 61 53 53 47 49 38 15 8 8 11 7 4 8 8 8 17 15 6 10 14 5 8 14 13 18 16 17 7 27 8 7 9 8 5 3 9 16 18 11 8 15
50 49 46 47 54 58 61 55 51 47 40 26 15 3 5 8 6 8 7 9 13 13 7 23 8 7 16 15 28 33 20 12 22 26 11 12 12 12 18 22 20 21 26 29 29 24 18
52 50 48 48 52 54 53 57 51 48 40 15 14 10 9 15 25 8 9 6 16 13 10 19 11 27 27 25 30 42 34 23 16 7 5 5 5 4 20 22 27 31 30 34 36 36 34
53 51 51 51 53 52 51 52 51 37 38 12 18 8 5 11 7 4 7 9 11 30 21 18 32 35 29 32 41 59 63 67 36 21 10 7 4 1 11 10 13 18 35 37 39 29 23
51 52 50 53 54 52 52 49 45 27 31 26 24 16 4 8 5 8 14 32 32 18 21 38 46 22 24 66 75 49 36 37 31 31 35 14 13 6 7 3 10 9 8 19 39 31 28
49 52 54 55 53 54 50 48 39 22 21 26 26 15 7 8 15 24 15 12 34 36 32 30 44 45 51 30 9 12 7 2 6 10 23 29 17 6 6 8 18 23 4 10 9 4 18
55 58 60 59 60 59 52 48 43 28 16 26 27 26 16 10 9 22 32 28 12 8 9 16 43 43 21 7 6 7 6 7 7 11 2 25 26 14 8 8 9 5 4 24 14 7 10
63 66 65 64 60 53 51 51 38 35 19 22 27 29 21 15 30 17 15 14 18 11 8 16 20 14 19 8 8 5 6 10 7 12 10 1 6 24 17 10 12 15 24 24 10 1 19
66 68 65 61 53 47 51 45 31 28 20 26 30 31 36 23 55 50 34 28 33 26 6 13 18 6 8 12 6 5 5 6 7 7 11 6 8 3 7 8 9 22 23 10 13 35 30
66 68 62 55 51 47 48 42 27 23 25 26 35 30 32 51 57 79 82 71 75 71 39 10 9 9 3 3 2 5 5 5 9 6 5 5 4 6 4 4 9 22 32 54 55 40 24
Wind_Direction_500mb
33 32 30 26 24 19 12 9 5 4 0 356 353 352 351 348 347 345 345 346 340 335 333 334 330 326 336 321 289 316 274 273 281 290 287 271 218 209 192 204 195 231 215 221 240 248 250
29 24 22 20 16 12 9 6 2 0 356 354 352 350 348 348 348 347 351 350 337 325 323 330 331 333 329 289 324 324 309 289 310 299 272 256 220 229 287 224 198 159 225 234 239 246 244
23 23 20 15 10 7 4 1 1 1 359 356 354 351 349 348 350 350 349 353 337 339 333 344 342 331 299 305 344 9 18 360 353 331 276 238 236 236 301 297 259 256 284 280 228 237 246
22 17 13 13 11 8 6 5 4 0 359 358 356 353 350 349 349 349 340 347 350 348 348 341 339 334 281 350 353 334 327 324 336 351 290 240 222 253 228 276 302 207 162 242 236 183 241
15 12 9 9 7 6 6 5 2 360 358 356 354 352 350 349 347 349 343 344 337 321 312 326 333 329 305 343 348 343 321 315 320 329 333 238 239 220 185 185 351 248 237 214 247 216 200
10 7 5 4 4 5 5 3 1 359 357 354 352 350 351 350 347 347 340 339 338 320 306 328 310 317 325 323 335 339 341 321 302 325 332 250 232 213 171 168 216 222 231 207 204 197 189
12 9 7 6 7 4 4 3 1 359 356 354 351 350 350 349 342 347 340 349 11 337 325 290 287 281 292 324 334 335 341 304 245 50 356 269 199 222 228 239 256 42 71 56 322 263 281
13 11 10 8 5 2 2 2 1 359 356 354 351 346 348 350 334 350 357 45 23 325 303 306 291 285 314 330 293 333 337 304 219 180 103 339 261 260 247 203 244 271 264 256 266 260 214
16 13 10 6 0 357 356 357 358 358 354 352 349 341 345 353 344 331 3 16 339 327 268 294 311 295 331 345 297 324 309 269 233 191 213 198 254 336 266 231 230 203 218 209 226 293 283
17 13 11 9 5 360 354 352 352 356 353 347 346 337 338 351 8 347 358 347 328 298 47 280 335 358 335 336 261 333 331 269 266 242 227 215 254 233 224 232 225 242 178 248 325 166 258
14 12 10 8 6 4 2 356 351 353 350 345 342 333 328 318 339 348 338 338 327 152 358 315 332 333 341 359 291 329 357 259 243 253 278 237 197 220 240 212 186 244 200 226 223 253 269
7 7 7 6 4 2 1 359 355 352 350 344 339 325 313 287 353 353 340 340 125 48 275 335 325 336 344 323 319 292 321 301 267 264 229 250 254 204 217 241 204 205 180 166 163 150 253
4 2 3 2 1 359 359 359 356 354 351 348 345 340 322 159 358 360 339 357 40 105 341 322 318 331 327 288 318 316 321 312 249 324 332 285 235 227 205 245 236 161 103 145 91 175 231
2 1 360 1 1 357 356 356 355 355 354 351 352 11 83 116 357 354 341 60 72 257 272 310 309 310 280 348 300 316 299 324 7 293 289 284 180 172 191 200 202 184 163 178 177 183 220
360 358 356 357 357 356 356 355 352 354 354 352 359 60 60 28 339 348 345 55 196 249 293 311 320 294 293 319 279 333 300 273 19 29 325 331 141 356 19 351 172 198 167 212 23 282 198
359 358 357 354 354 354 355 355 354 354 355 353 356 121 36 27 349 338 64 259 229 237 306 318 263 249 284 314 321 341 297 271 352 5 167 295 294 133 195 97 303 180 183 107 331 206 247
356 357 357 356 354 353 352 355 356 354 357 356 356 96 23 0 336 6 115 245 287 305 353 267 267 277 266 309 282 280 270 312 16 342 321 288 179 312 335 202 185 153 293 201 174 185 211
351 352 352 352 351 350 351 351 356 355 354 2 1 43 360 331 23 48 57 307 300 288 290 285 280 243 252 294 278 272 258 309 329 349 317 321 1 283 264 290 344 338 257 230 205 253 252
344 350 353 350 351 348 349 348 354 358 356 352 347 319 358 352 75 322 306 289 270 286 295 305 293 262 322 300 294 266 271 310 310 297 285 335 308 312 323 350 28 86 315 268 228 158 221
335 340 346 343 342 345 349 346 347 360 357 354 352 358 344 51 79 78 318 292 284 316 288 254 260 269 294 270 236 274 273 309 303 233 303 266 216 218 221 293 346 298 296 299 273 256 252
331 332 334 334 335 339 346 347 344 351 1 3 6 26 356 306 326 326 239 282 279 325 281 304 295 237 301 288 300 271 277 291 272 297 308 183 229 220 243 260 268 259 268 271 262 256 249
327 329 329 329 333 335 338 344 344 343 3 3 3 360 335 291 295 275 265 240 283 315 308 300 249 290 292 282 273 285 283 267 254 279 224 164 265 258 280 263 245 251 259 258 251 246 255
327 326 327 327 331 332 334 337 344 345 351 354 342 310 281 267 293 342 251 275 308 309 282 260 290 294 295 280 290 282 274 268 252 247 210 195 238 269 269 264 322 288 246 237 243 238 219
332 330 330 330 330 328 331 332 337 344 330 331 336 326 281 272 236 223 286 288 288 293 280 285 290 274 279 308 302 292 260 253 248 244 230 202 196 217 265 7 245 227 341 301 244 230 221
330 328 328 328 324 321 322 330 330 325 317 309 308 300 242 269 255 294 299 289 299 289 278 278 285 304 312 316 322 328 343 235 228 215 207 211 201 250 231 220 285 298 35 350 356 219 220
325 326 324 321 320 320 325 335 334 316 282 299 296 285 246 277 248 279 307 288 284 294 283 281 317 322 332 29 355 343 318 317 318 326 32 215 215 194 180 244 258 139 265 335 297 278 83
325 325 324 321 322 330 332 333 332 331 287 287 288 292 249 256 283 290 284 291 293 277 280 298 336 328 8 359 4 340 302 326 323 320 327 144 197 225 233 241 276 15 327 307 199 276 320
322 322 323 325 330 325 324 330 324 325 312 290 284 288 271 264 286 280 273 251 276 253 249 319 328 329 15 16 360 300 296 313 296 272 309 304 319 256 214 236 248 3 323 301 337 316 297
322 321 322 325 323 321 318 322 314 318 316 292 283 289 294 254 271 292 293 280 263 250 265 285 286 311 227 340 324 301 294 301 315 295 309 319 267 291 241 296 261 290 272 286 298 284 289
Wind_Speed_850mb
35 34 34 33 33 33 33 34 34 35 35 34 35 36 37 39 37 36 34 32 35 39 41 43 40 35 36 28 30 21 23 39 38 36 22 16 43 20 14 13 18 29 20 31 56 42 38
36 35 35 36 37 38 38 38 38 39 39 38 37 37 38 39 37 33 27 30 35 37 31 33 31 32 27 10 26 40 41 34 37 39 29 18 17 42 17 14 33 6 24 33 33 34 21
37 37 38 40 41 41 41 41 40 40 39 38 37 38 39 40 35 26 21 25 32 42 31 26 32 31 30 24 43 18 20 33 48 37 38 27 27 21 8 6 23 23 12 8 15 19 22
34 33 34 36 38 40 42 42 43 45 45 46 46 45 44 44 39 32 29 32 34 31 24 38 37 19 21 35 37 35 38 45 46 47 26 31 21 27 24 20 9 8 9 26 27 15 13
37 36 37 39 41 42 43 45 46 48 49 49 48 46 44 44 38 35 35 39 39 34 30 43 21 16 16 35 39 41 38 39 35 40 36 18 20 21 11 8 7 9 31 19 12 17 22
35 35 37 40 41 42 44 47 49 50 51 50 48 45 43 41 37 37 38 42 33 17 23 24 12 11 18 39 51 42 33 26 21 37 12 16 17 7 6 13 31 21 13 3 10 10 28
36 36 38 40 41 44 47 50 53 52 51 50 47 43 41 35 30 34 39 45 33 7 32 16 36 32 45 48 42 45 39 24 10 5 6 9 7 26 22 21 18 11 7 3 2 4 5
39 40 40 40 42 45 48 51 54 54 51 50 46 42 38 28 21 23 26 17 16 20 24 28 28 31 31 36 24 40 31 7 3 9 2 8 18 15 8 12 19 19 5 7 10 18 9
42 43 43 44 45 46 48 49 51 53 52 48 44 43 33 22 16 18 11 17 22 23 8 27 20 21 20 42 21 33 20 6 7 7 9 13 14 6 10 10 10 8 10 5 13 18 20
45 46 46 47 49 51 52 52 52 53 52 50 45 43 30 15 10 26 4 25 27 10 6 11 12 9 35 39 9 51 25 10 6 12 9 11 14 14 14 10 22 21 9 3 6 5 14
45 47 49 51 52 54 57 57 53 53 53 49 48 40 28 14 18 24 26 35 14 5 7 24 9 18 58 8 28 11 13 6 14 11 3 19 13 6 8 12 14 12 21 17 8 9 7
46 47 49 51 54 56 58 60 56 56 56 54 50 40 26 8 14 27 34 34 8 10 8 14 15 23 31 25 27 16 28 18 9 8 14 24 31 9 14 16 10 8 10 7 5 5 12
48 49 49 50 54 57 60 62 62 60 60 58 50 31 10 6 11 28 37 6 8 8 9 11 17 18 30 10 22 13 23 13 8 8 7 18 21 25 12 8 4 7 10 3 2 5 18
47 49 50 51 54 57 61 64 66 65 63 58 40 18 11 5 10 24 32 9 12 5 10 13 13 29 9 15 13 14 12 11 5 12 10 10 7 14 15 20 14 12 16 8 11 10 8
48 49 50 51 54 59 62 63 65 65 64 59 30 10 10 5 10 22 16 9 10 5 7 12 23 7 7 11 8 12 9 5 4 9 11 9 1 11 12 4 20 9 10 17 5 6 2
49 52 52 52 54 58 63 63 65 65 61 60 31 8 12 7 13 24 8 5 6 7 15 14 8 5 9 15 12 11 8 6 8 14 4 7 10 10 8 7 22 10 8 8 2 9 9
49 52 54 55 56 57 62 62 62 66 61 56 24 4 9 9 18 7 5 8 10 15 19 7 7 11 12 10 9 7 12 11 2 11 9 5 1 8 4 7 10 2 2 3 6 9 7
47 51 54 57 60 59 59 60 57 63 67 55 17 4 17 8 7 4 1 8 17 8 5 9 8 9 10 7 10 8 10 8 13 5 9 4 2 7 12 12 8 4 6 4 8 11 14
47 49 53 59 64 63 56 57 55 54 60 55 24 9 9 17 4 5 11 10 10 7 9 5 8 5 5 6 11 9 12 11 31 3 5 3 2 7 10 6 9 5 5 8 3 2 10
47 45 47 55 60 65 61 53 53 47 49 38 15 8 8 11 7 4 8 8 8 17 15 6 10 14 5 8 14 13 18 16 17 7 27 8 7 9 8 5 3 9 16 18 11 8 15
50 49 46 47 54 58 61 55 51 47 40 26 15 3 5 8 6 8 7 9 13 13 7 23 8 7 16 15 28 33 20 12 22 26 11 12 12 12 18 22 20 21 26 29 29 24 18
52 50 48 48 52 54 53 57 51 48 40 15 14 10 9 15 25 8 9 6 16 13 10 19 11 27 27 25 30 42 34 23 16 7 5 5 5 4 20 22 27 31 30 34 36 36 34
53 51 51 51 53 52 51 52 51 37 38 12 18 8 5 11 7 4 7 9 11 30 21 18 32 35 29 32 41 59 63 67 36 21 10 7 4 1 11 10 13 18 35 37 39 29 23
51 52 50 53 54 52 52 49 45 27 31 26 24 16 4 8 5 8 14 32 32 18 21 38 46 22 24 66 75 49 36 37 31 31 35 14 13 6 7 3 10 9 8 19 39 31 28
49 52 54 55 53 54 50 48 39 22 21 26 26 15 7 8 15 24 15 12 34 36 32 30 44 45 51 30 9 12 7 2 6 10 23 29 17 6 6 8 18 23 4 10 9 4 18
55 58 60 59 60 59 52 48 43 28 16 26 27 26 16 10 9 22 32 28 12 8 9 16 43 43 21 7 6 7 6 7 7 11 2 25 26 14 8 8 9 5 4 24 14 7 10
63 66 65 64 60 53 51 51 38 35 19 22 27 29 21 15 30 17 15 14 18 11 8 16 20 14 19 8 8 5 6 10 7 12 10 1 6 24 17 10 12 15 24 24 10 1 19
66 68 65 61 53 47 51 45 31 28 20 26 30 31 36 23 55 50 34 28 33 26 6 13 18 6 8 12 6 5 5 6 7 7 11 6 8 3 7 8 9 22 23 10 13 35 30
66 68 62 55 51 47 48 42 27 23 25 26 35 30 32 51 57 79 82 71 75 71 39 10 9 9 3 3 2 5 5 5 9 6 5 5 4 6 4 4 9 22 32 54 55 40 24
Wind_Direction_850mb
33 32 30 26 24 19 12 9 5 4 0 356 353 352 351 348 347 345 345 346 340 335 333 334 330 326 336 321 289 316 274 273 281 290 287 271 218 209 192 204 195 231 215 221 240 248 250
29 24 22 20 16 12 9 6 2 0 356 354 352 350 348 348 348 347 351 350 337 325 323 330 331 333 329 289 324 324 309 289 310 299 272 256 220 229 287 224 198 159 225 234 239 246 244
23 23 20 15 10 7 4 1 1 1 359 356 354 351 349 348 350 350 349 353 337 339 333 344 342 331 299 305 344 9 18 360 353 331 276 238 236 236 301 297 259 256 284 280 228 237 246
22 17 13 13 11 8 6 5 4 0 359 358 356 353 350 349 349 349 340 347 350 348 348 341 339 334 281 350 353 334 327 324 336 351 290 240 222 253 228 276 302 207 162 242 236 183 241
15 12 9 9 7 6 6 5 2 360 358 356 354 352 350 349 347 349 343 344 337 321 312 326 333 329 305 343 348 343 321 315 320 329 333 238 239 220 185 185 351 248 237 214 247 216 200
10 7 5 4 4 5 5 3 1 359 357 354 352 350 351 350 347 347 340 339 338 320 306 328 310 317 325 323 335 339 341 321 302 325 332 250 232 213 171 168 216 222 231 207 204 197 189
12 9 7 6 7 4 4 3 1 359 356 354 351 350 350 349 342 347 340 349 11 337 325 290 287 281 292 324 334 335 341 304 245 50 356 269 199 222 228 239 256 42 71 56 322 263 281
13 11 10 8 5 2 2 2 1 359 356 354 351 346 348 350 334 350 357 45 23 325 303 306 291 285 314 330 293 333 337 304 219 180 103 339 261 260 247 203 244 271 264 256 266 260 214
16 13 10 6 0 357 356 357 358 358 354 352 349 341 345 353 344 331 3 16 339 327 268 294 311 295 331 345 297 324 309 269 233 191 213 198 254 336 266 231 230 203 218 209 226 293 283
17 13 11 9 5 360 354 352 352 356 353 347 346 337 338 351 8 347 358 347 328 298 47 280 335 358 335 336 261 333 331 269 266 242 227 215 254 233 224 232 225 242 178 248 325 166 258
14 12 10 8 6 4 2 356 351 353 350 345 342 333 328 318 339 348 338 338 327 152 358 315 332 333 341 359 291 329 357 259 243 253 278 237 197 220 240 212 186 244 200 226 223 253 269
7 7 7 6 4 2 1 359 355 352 350 344 339 325 313 287 353 353 340 340 125 48 275 335 325 336 344 323 319 292 321 301 267 264 229 250 254 204 217 241 204 205 180 166 163 150 253
4 2 3 2 1 359 359 359 356 354 351 348 345 340 322 159 358 360 339 357 40 105 341 322 318 331 327 288 318 316 321 312 249 324 332 285 235 227 205 245 236 161 103 145 91 175 231
2 1 360 1 1 357 356 356 355 355 354 351 352 11 83 116 357 354 341 60 72 257 272 310 309 310 280 348 300 316 299 324 7 293 289 284 180 172 191 200 202 184 163 178 177 183 220
360 358 356 357 357 356 356 355 352 354 354 352 359 60 60 28 339 348 345 55 196 249 293 311 320 294 293 319 279 333 300 273 19 29 325 331 141 356 19 351 172 198 167 212 23 282 198
359 358 357 354 354 354 355 355 354 354 355 353 356 121 36 27 349 338 64 259 229 237 306 318 263 249 284 314 321 341 297 271 352 5 167 295 294 133 195 97 303 180 183 107 331 206 247
356 357 357 356 354 353 352 355 356 354 357 356 356 96 23 0 336 6 115 245 287 305 353 267 267 277 266 309 282 280 270 312 16 342 321 288 179 312 335 202 185 153 293 201 174 185 211
351 352 352 352 351 350 351 351 356 355 354 2 1 43 360 331 23 48 57 307 300 288 290 285 280 243 252 294 278 272 258 309 329 349 317 321 1 283 264 290 344 338 257 230 205 253 252
344 350 353 350 351 348 349 348 354 358 356 352 347 319 358 352 75 322 306 289 270 286 295 305 293 262 322 300 294 266 271 310 310 297 285 335 308 312 323 350 28 86 315 268 228 158 221
335 340 346 343 342 345 349 346 347 360 357 354 352 358 344 51 79 78 318 292 284 316 288 254 260 269 294 270 236 274 273 309 303 233 303 266 216 218 221 293 346 298 296 299 273 256 252
331 332 334 334 335 339 346 347 344 351 1 3 6 26 356 306 326 326 239 282 279 325 281 304 295 237 301 288 300 271 277 291 272 297 308 183 229 220 243 260 268 259 268 271 262 256 249
327 329 329 329 333 335 338 344 344 343 3 3 3 360 335 291 295 275 265 240 283 315 308 300 249 290 292 282 273 285 283 267 254 279 224 164 265 258 280 263 245 251 259 258 251 246 255
327 326 327 327 331 332 334 337 344 345 351 354 342 310 281 267 293 342 251 275 308 309 282 260 290 294 295 280 290 282 274 268 252 247 210 195 238 269 269 264 322 288 246 237 243 238 219
332 330 330 330 330 328 331 332 337 344 330 331 336 326 281 272 236 223 286 288 288 293 280 285 290 274 279 308 302 292 260 253 248 244 230 202 196 217 265 7 245 227 341 301 244 230 221
330 328 328 328 324 321 322 330 330 325 317 309 308 300 242 269 255 294 299 289 299 289 278 278 285 304 312 316 322 328 343 235 228 215 207 211 201 250 231 220 285 298 35 350 356 219 220
325 326 324 321 320 320 325 335 334 316 282 299 296 285 246 277 248 279 307 288 284 294 283 281 317 322 332 29 355 343 318 317 318 326 32 215 215 194 180 244 258 139 265 335 297 278 83
325 325 324 321 322 330 332 333 332 331 287 287 288 292 249 256 283 290 284 291 293 277 280 298 336 328 8 359 4 340 302 326 323 320 327 144 197 225 233 241 276 15 327 307 199 276 320
322 322 323 325 330 325 324 330 324 325 312 290 284 288 271 264 286 280 273 251 276 253 249 319 328 329 15 16 360 300 296 313 296 272 309 304 319 256 214 236 248 3 323 301 337 316 297
322 321 322 325 323 321 318 322 314 318 316 292 283 289 294 254 271 292 293 280 263 250 265 285 286 311 227 340 324 301 294 301 315 295 309 319 267 291 241 296 261 290 272 286 298 284 289